Regional Weather Roundup
Issued by NWS

Home | Current Version | Previous Version | Graphics & Text | Print | Product List | Glossary On
Versions: 1 2 3 4 5 6 7 8 9 10 11 12 13 14 15 16 17 18 19 20 21 22 23 24 25 26 27 28 29 30 31 32 33 34 35 36 37 38 39 40 41 42 43 44 45 46 47 48 49 50
000
ASUS43 KOAX 010310
RWRNE

WEATHER ROUNDUP FOR NEBRASKA
NATIONAL WEATHER SERVICE OMAHA NE
1000 PM CDT SUN AUG 31 2014

NOTES: SATELLITE DATA IS BEING USED TO AUGMENT CLOUD COVER ABOVE
       12000 FEET.
       "FAIR" INDICATES FEW OR NO CLOUDS BELOW 12,000 FEET WITH NO
       SIGNIFICANT WEATHER AND/OR OBSTRUCTIONS TO VISIBILITY.

  * THESE STATIONS DO NOT REPORT WEATHER SUCH AS RAIN...SNOW OR FOG.

NEZ001>004-019>022-054>056-010400-
NEBRASKA PANHANDLE

CITY           SKY/WX    TMP DP  RH WIND       PRES   REMARKS
SCOTTSBLUFF    CLEAR     56  48  74 W7        29.92R
ALLIANCE       CLEAR     54  51  90 N5        29.89R
CHADRON        MOCLDY    55  53  93 SW3       29.88R
KIMBALL        PTCLDY    56  46  67 NW9       29.94S
SIDNEY         CLEAR     59  47  64 N9        29.94R
$$

NEZ057>060-069>072-079>082-010400-
SOUTHWEST NEBRASKA

CITY           SKY/WX    TMP DP  RH WIND       PRES   REMARKS
NORTH PLATTE   CLEAR     63  56  78 W16       29.79R
IMPERIAL       PTCLDY    67  53  61 W15       29.83R
LEXINGTON      PTCLDY    62  60  92 CALM      29.76R
MCCOOK         PTCLDY    62  59  90 S7        29.79R
OGALLALA       CLEAR     60  51  72 N10       29.84S
$$

NEZ005>010-023>029-035>040-094-010400-
NORTH CENTRAL NEBRASKA

CITY           SKY/WX    TMP DP  RH WIND       PRES   REMARKS
VALENTINE      MOCLDY    59  56  89 NW14G23   29.78R
AINSWORTH      MOCLDY    64  59  86 W7        29.78R
BROKEN BOW     CLEAR     62  56  80 W8        29.74S
O`NEILL        CLEAR     61  60  98 N3        29.73R
ORD            PTCLDY    63  58  83 SE7       29.72R
THEDFORD       MOCLDY    60  57  89 N10G18    29.77F
$$

NEZ041-046>049-061>064-073>077-083>087-010400-
SOUTH CENTRAL NEBRASKA

CITY           SKY/WX    TMP DP  RH WIND       PRES   REMARKS
GRAND ISLAND   CLOUDY    66  61  84 N3        29.69F
AURORA         CLOUDY    64  64  98 CALM      29.68F
HASTINGS       CLOUDY    65  60  84 CALM      29.71S
HEBRON         CLOUDY    68  64  86 SE5       29.64F
HOLDREGE       MOCLDY    65  60  85 CALM      29.75R
KEARNEY *      MOCLDY    66  59  77 CALM      29.72F
YORK           CLOUDY    64 N/A N/A NE5       29.67F
$$

NEZ011>018-030>034-042>045-010400-
NORTHEAST NEBRASKA

CITY           SKY/WX    TMP DP  RH WIND       PRES   REMARKS
NORFOLK        MOCLDY    64  62  93 CALM      29.71R
ALBION         MOCLDY    62  59  91 CALM      29.72R
BLAIR          CLOUDY    68  66  92 SE6       29.67F
FREMONT        CLOUDY    67  65  93 CALM      29.68R
TEKAMAH        CLOUDY    67  65  93 S7        29.66F
WAYNE          CLOUDY    64  63  96 CALM      29.69F
$$

NEZ050>053-065>068-078-088>093-010400-
SOUTHEAST NEBRASKA

CITY           SKY/WX    TMP DP  RH WIND       PRES   REMARKS
LINCOLN        CLOUDY    69  65  86 E5        29.67S
OMAHA EPPLEY   CLOUDY    70  66  87 SE9       29.66F
BEATRICE       CLOUDY    71  66  84 SE7       29.68S
FALLS CITY     LGT RAIN  68  66  93 S13       29.71S
NEBRASKA CITY  CLOUDY    70  70 100 S3        29.70F
PLATTSMOUTH    CLOUDY    69  66  89 E6        29.68F
$$

NEZ044-045-051>053-067-010400-
OMAHA AREA

CITY           SKY/WX    TMP DP  RH WIND       PRES   REMARKS
OMAHA EPPLEY   CLOUDY    70  66  87 SE9       29.66F
BLAIR          CLOUDY    68  66  92 SE6       29.67F
FREMONT        CLOUDY    67  65  93 CALM      29.68R
MILLARD        CLOUDY    69  66  90 CALM      29.66F
OFFUTT AFB     CLOUDY    69  69 100 E6        29.65F
PLATTSMOUTH    CLOUDY    69  66  89 E6        29.68F
WAHOO          FAIR      67  64  89 SE3       29.67R
$$



USA.gov is the U.S. government's official web portal to all federal, state and local government web resources and services.